ORS-5

operational
NORAD ID: 42921 Int'l Des: 2017-050 Owner: AFORS Country: US
LEOCIRCULAR

About ORS-5

Description loading...

Live Position

Loading 3D Globe...

Upcoming Passes

Altitude History

Altitude vs Time

uPlot chart will show altitude changes over time

Two-Line Element Set

1 42921U 17050A 26062.66185326 .00004072 00000-0 24984-3 0 9997
2 42921 0.0475 212.5734 0010513 289.1573 218.3439 15.00478553465176
Epoch: Mar 3, 2026 • Age: 35 hours

Current Status

Altitude 568.7 km
Velocity 7.58 km/s
Sub-Earth Point 0.05°N, 23.81°W
Launch Date Aug 26, 2017
Age 8.5 years
Type other

Technical Details

Classification Payload
Mass 110.00 kg
Dry Mass 110.00 kg
Total Mass 110.00 kg
Length 1.50 m
Diameter 0.60 m
Span 0.60 m
Shape Box+2 pan
Manufacturer MITLL
Bus Type ORS-5
Phase Status In Orbit
Owner/State AFORS/US

Large Constellations

Loading constellations...